sat.trackr.live / text

‹ back to catalog

STARLINK-35501

NORAD 66436 · 2025-259Q

PAYLOAD ACTIVE UNKNOWN

§ Identity

Operator
Country
US
Launch date
2025-11-11
Launch site
AFETR
Launch vehicle
Mass (kg)
RCS (m²)

Purposes: comms

External: N2YO · Heavens-Above · Gunter

§ Orbital elements

Epoch: 2026-05-24T14:17:21.731424Z

Period
94.26 min
Inclination
43.0004°
Eccentricity
0.0001383
Mean motion
15.27613651 rev/d
Perigee alt
482.0 km
Apogee alt
483.9 km
Semi-major
6,861.1 km
B*
4.4229e-4
RAAN
205.3599°
Arg perigee
271.9260°
Mean anomaly
88.1433°
Rev number
3,110

§ Raw data

STARLINK-355011 66436U 25259Q   26144.59539041  .00011941  00000+0  44229-3 0  99902 66436  43.0004 205.3599 0001383 271.9260  88.1433 15.27613651 31102

JSON: /api/v1/satellites/66436 · /tle

For live sub-satellite position, see the globe view (requires WebGL).

§ Visibility from observer

Set your observer location to see the next 7 days of passes ≥ 10°. The values pass through the URL so the page stays shareable.

No JS? Fill the form by hand. The geolocation button needs JavaScript.